Parsons Landing, Santa Catalina Island Weather observations

Data are for 10 minute period ending at time listed.
 Day   Time   Solar   Ave.   Ave.  Ave.  Vector    Max.   Stn.   Total 
  of    of     Rad.   Air    Rel.  Wind   Wind     Wind   Baro. Precip. 
Year   Day            Temp.  Hum.  Speed  Dir.     Gust   Pres.         
2014   (PST)   W/m2    F      %     mph   deg.      mph    mb.    in.   
------------------------------------------------------------------------
 351   17:10    0.0    58   61.0    11    268.9    16.7    999.0   0.00  
 351   17:20    0.0    58   59.9    10    264.7    16.7    999.0   0.00  
 351   17:30    0.0    58   57.9     9    301.0    16.7    999.0   0.00  
 351   17:40    0.0    58   58.2     7    287.6    11.9    999.0   0.00  
 351   17:50    0.0    58   59.2     7    256.1    11.3    999.0   0.00  
 351   18:00    0.0    58   58.3     9    265.3    13.1    999.0   0.00  
 351   18:10    0.0    58   65.2     9    255.2    13.1    999.0   0.00  
 351   18:20    0.0    58   68.4    10    254.9    15.5    999.0   0.00  
 351   18:30    0.0    58   67.2     8    262.5    16.7    999.0   0.00  
 351   18:40    0.0    58   67.4     7    258.1    14.3    999.0   0.00  
 351   18:50    0.0    58   66.7     9    252.3    12.5    999.0   0.00  
 351   19:00    0.0    58   65.5     9    255.6    15.5    999.0   0.00  
 351   19:10    0.0    58   64.5     9    247.1    13.1    999.0   0.00  
 351   19:20    0.0    58   63.6     9    247.1    12.5    999.0   0.00  
 351   19:30    0.0    58   63.3     9    247.8    12.5    999.0   0.00  
 351   19:40    0.0    58   64.2     9    248.3    13.1    999.0   0.00  
 351   19:50    0.0    58   64.7    10    251.3    13.1    999.0   0.00  
 351   20:00    0.0    58   64.7    10    250.5    13.7    999.0   0.00  
 351   20:10    0.0    58   65.1    10    244.6    13.1    999.0   0.00  
 351   20:20    0.0    58   65.8    12    261.6    17.9    999.0   0.00  
 351   20:30    0.0    58   67.2    12    257.4    18.5    999.0   0.00  
 351   20:40    0.0    58   68.6    11    265.8    19.1    999.0   0.00  
 351   20:50    0.0    57   71.6    11    258.2    17.9    999.0   0.00  
 351   21:00    0.0    57   71.7    11    266.0    16.7    999.0   0.00  
 351   21:10    0.0    57   71.4    11    261.0    19.1    999.0   0.00  
 351   21:20    0.0    57   71.2    12    258.2    20.3    999.0   0.00  
 351   21:30    0.0    58   70.1    12    255.1    22.1    999.0   0.00  
 351   21:40    0.0    58   70.2    12    256.1    17.9    999.0   0.00  
 351   21:50    0.0    57   68.6    12    259.9    17.9    999.0   0.00  
 351   22:00    0.0    58   67.7    11    249.6    16.1    999.0   0.00  
 351   22:10    0.0    57   69.5    11    248.0    19.7    999.0   0.00  
 351   22:20    0.0    57   68.6    11    255.1    18.5    999.0   0.00  
 351   22:30    0.0    57   67.2     8    252.4    13.1    999.0   0.00  
 351   22:40    0.0    57   66.6     8    255.4    14.3    999.0   0.00  
 351   22:50    0.0    57   62.9     9    256.5    16.7    999.0   0.00  
 351   23:00    0.0    57   59.8     8    261.3    15.5    999.0   0.00  
 351   23:10    0.0    57   61.7     9    260.8    16.1    999.0   0.00  
 351   23:20    0.0    57   64.3     8    265.6    13.7    999.0   0.00  
 351   23:30    0.0    57   66.5     8    260.6    15.5    999.0   0.00  
 351   23:40    0.0    58   66.3    11    251.4    16.7    999.0   0.00  
 351   23:50    0.0    57   67.5    11    257.7    17.3    999.0   0.00  
 352    0:00    0.0    57   67.2    10    254.3    14.3    999.0   0.00  
 352    0:10    0.0    57   68.6    10    250.3    17.3    999.0   0.00  
 352    0:20    0.0    57   70.1    10    245.7    14.9    999.0   0.00  
 352    0:30    0.0    57   71.6    10    244.0    13.7    999.0   0.00  
 352    0:40    0.0    57   71.9    10    253.8    13.7    999.0   0.00  
 352    0:50    0.0    57   71.8    10    247.6    14.3    999.0   0.00  
 352    1:00    0.0    57   71.9     9    245.1    14.3    999.0   0.00  
 352    1:10    0.0    57   72.1     9    249.7    14.3    999.0   0.00  
 352    1:20    0.0    57   70.8    10    258.5    14.3    999.0   0.00  
 352    1:30    0.0    57   71.7     9    259.0    13.1    999.0   0.00  
 352    1:40    0.0    57   71.2    10    264.1    18.5    999.0   0.00  
 352    1:50    0.0    57   71.0    13    265.9    17.9    999.0   0.00  
 352    2:00    0.0    57   71.1    12    268.5    18.5    999.0   0.00  
 352    2:10    0.0    57   70.8    11    271.8    16.7    999.0   0.00  
 352    2:20    0.0    58   69.7    13    264.8    19.7    999.0   0.00  
 352    2:30    0.0    57   70.9     9    273.0    14.9    999.0   0.00  
 352    2:40    0.0    57   69.8     9    265.7    14.9    999.0   0.00  
 352    2:50    0.0    57   70.1    10    268.4    19.1    999.0   0.00  
 352    3:00    0.0    57   70.1    10    269.8    16.1    999.0   0.00  
 352    3:10    0.0    57   69.0    12    259.4    17.9    999.0   0.00  
 352    3:20    0.0    57   69.2     9    272.8    18.5    999.0   0.00  
 352    3:30    0.0    58   68.8    10    262.6    15.5    999.0   0.00  
 352    3:40    0.0    57   68.9    10    268.1    16.7    999.0   0.00  
 352    3:50    0.0    57   69.8    12    264.7    19.1    999.0   0.00  
 352    4:00    0.0    57   69.4    12    267.9    17.9    999.0   0.00  
 352    4:10    0.0    58   69.1    12    263.2    19.1    999.0   0.00  
 352    4:20    0.0    58   68.9    11    264.4    16.7    999.0   0.00  
 352    4:30    0.0    58   68.5    11    263.3    17.9    999.0   0.00  
 352    4:40    0.0    57   69.4     9    259.4    13.1    999.0   0.00  
 352    4:50    0.0    57   67.3     8    273.8    22.1    999.0   0.00  
 352    5:00    0.0    57   68.1     7    265.9    12.5    999.0   0.00  
 352    5:10    0.0    57   67.3     8    281.5    12.5    999.0   0.00  
 352    5:20    0.0    57   68.9     8    268.9    11.9    999.0   0.00  
 352    5:30    0.0    57   70.0     9    264.9    14.3    999.0   0.00  
 352    5:40    0.0    57   70.2     7    271.4    14.9    999.0   0.00  
 352    5:50    0.0    57   71.7     8    262.0    12.5    999.0   0.00  
 352    6:00    0.0    57   72.2     9    258.0    13.1    999.0   0.00  
 352    6:10    0.0    57   72.6    10    260.0    14.9    999.0   0.00  
 352    6:20    0.0    57   72.1     8    258.7    11.9    999.0   0.00  
 352    6:30    0.0    57   72.2     7    260.0    12.5    999.0   0.00  
 352    6:40    0.0    57   72.3     8    260.1    13.7    999.0   0.00  
 352    6:50    2.0    57   73.3     7    258.3    10.2    999.0   0.00  
 352    7:00    3.0    57   74.0     8    246.2    10.8    999.0   0.00  
 352    7:10    6.0    57   73.6     8    250.1    11.9    999.0   0.00  
 352    7:20   14.0    57   72.7     9    246.6    13.1    999.0   0.00  
 352    7:30   22.0    57   72.4     7    256.4    11.3    999.0   0.00  
 352    7:40   84.0    58   70.6     6    260.5    10.2    999.0   0.00  
 352    7:50   59.0    58   68.9     6    259.6     9.0    999.0   0.00  
 352    8:00  103.0    58   69.3     5    253.0     7.2    999.0   0.00  
 352    8:10   79.0    58   69.5     5    265.3     9.6    999.0   0.00  
 352    8:20   61.0    58   70.8     5    267.7     7.2    999.0   0.00  
 352    8:30   57.0    58   72.2     5    269.4     8.4    999.0   0.00  
 352    8:40   74.0    58   73.2     5    262.3     7.2    999.0   0.00  
 352    8:50  120.0    59   72.9     4    273.9     6.6    999.0   0.00  
 352    9:00  146.0    59   72.1     4    270.6     6.6    999.0   0.00  
 352    9:10  118.0    59   71.7     4    302.6     7.8    999.0   0.00  
 352    9:20  110.0    59   70.8     4    313.3     7.2    999.0   0.00  
 352    9:30  149.0    59   71.4     4    298.7     6.6    999.0   0.00  
 352    9:40  175.0    60   71.8     5    320.5     7.8    999.0   0.00  
 352    9:50  220.0    61   70.6     4    316.3     7.8    999.0   0.00  
 352   10:00  136.0    60   73.3     5    316.1     7.8    999.0   0.00  
 352   10:10  114.0    60   75.1     5    309.9     8.4    999.0   0.00  
 352   10:20  112.0    60   75.7     5    309.0     9.0    999.0   0.00  
 352   10:30  126.0    60   75.1     5    302.4     8.4    999.0   0.00  
 352   10:40  135.0    60   75.2     5    312.0     7.2    999.0   0.00  
 352   10:50  158.0    60   74.9     5    336.0     6.6    999.0   0.00  
 352   11:00   96.0    60   76.5     4     38.6     7.8    999.0   0.00  
 352   11:10   69.0    58   80.9     6     91.3     9.6    999.0   0.00  
 352   11:20   68.0    57   82.9     6     98.5     9.0    999.0   0.00  
 352   11:30   85.0    57   84.5     5     91.0     6.6    999.0   0.00  
 352   11:40  150.0    58   84.6     5     80.7     7.2    999.0   0.00  
 352   11:50  158.0    58   83.0     5     89.7     6.6    999.0   0.00  
 352   12:00  148.0    58   81.4     5     77.2     7.8    999.0   0.00  
 352   12:10  128.0    58   80.5     4     72.9     6.0    999.0   0.00  
 352   12:20  132.0    59   80.6     4     72.2     6.6    999.0   0.00  
 352   12:30   96.0    58   82.7     4    116.9     7.2    999.0   0.00  
 352   12:40   61.0    57   88.8     4    151.7     6.6    999.0   0.00  
 352   12:50   72.0    56   90.3     4    149.7     5.4    999.0   0.00  
 352   13:00   62.0    56   92.9     3    100.7     5.4    999.0   0.00  
 352   13:10   47.0    56   93.9     3     74.4     5.4    999.0   0.00  
 352   13:20   44.0    56   93.8     2     15.7     3.0    999.0   0.01  
 352   13:30   59.0    55   94.5     2    329.2     3.0    999.0   0.02  
 352   13:40   90.0    55   95.5     1    298.1     2.4    999.0   0.00  
 352   13:50  107.0    55   96.0     2    283.3     3.6    999.0   0.01  
 352   14:00   83.0    55   96.4     2    310.8     3.6    999.0   0.01  
 352   14:10   72.0    55   96.7     2    324.2     3.0    999.0   0.01  
 352   14:20   86.0    55   96.9     1    334.5     2.4    999.0   0.00  
 352   14:30   81.0    55   97.0     2     23.1     3.0    999.0   0.01  
 352   14:40   49.0    55   97.2     5     93.1     9.6    999.0   0.01  
 352   14:50   82.0    55   97.5     6    102.7     8.4    999.0   0.00  
 352   15:00   99.0    55   97.5     5    105.6     9.0    999.0   0.00  
 352   15:10   94.0    54   97.3     6    107.7     9.6    999.0   0.00  
 352   15:20   87.0    54   96.4     8    118.6    10.8    999.0   0.00  
 352   15:30   90.0    55   96.0     6    106.9     9.0    999.0   0.00  
 352   15:40   98.0    55   95.3     5    125.1     7.2    999.0   0.00  
 352   15:50   80.0    55   93.7     4    123.3     7.8    999.0   0.00  
 352   16:00   42.0    55   92.9     5    115.6     7.8    999.0   0.00  
 352   16:10   26.0    55   93.1     5    134.9     6.6    999.0   0.00  
 352   16:20   30.0    55   93.1     4    132.1     6.6    999.0   0.00  
 352   16:30   23.0    55   93.0     4    145.1     7.2    999.0   0.00  
 352   16:40   16.0    55   93.1     5    138.1     9.0    999.0   0.00  
 352   16:50    8.0    55   92.6     4    143.1     7.2    999.0   0.00  
 352   17:00    2.0    55   92.5     4    139.3     6.0    999.0   0.00  

Return to Parsons Landing graphs page.


Western Regional Climate Center,wrcc@dri.edu